Atlanta, GA

1:20 PM EDT on July 26, 2017 (GMT -0400)
The Hartsfield Atlanta International

Weather History for KATL - May, 2013

Change the Weather History Date:

Tuesday, May 7, 2013

  Actual Average Record
Temperature  
Mean Temperature 59 °F 68 °F  
Max Temperature 68 °F 78 °F 91 °F (1940)
Min Temperature 49 °F 58 °F 38 °F (1944)
Degree Days  
Heating Degree Days 6 1  
Month to date heating degree days 40 12  
Since 1 July heating degree days 2507 2752  
Cooling Degree Days 0 4  
Month to date cooling degree days 1 25  
Year to date cooling degree days 53 91  
Growing Degree Days 8 (Base 50)    
Moisture  
Dew Point 49 °F    
Average Humidity 74    
Maximum Humidity 93    
Minimum Humidity 55    
Precipitation  
Precipitation T in 0.13 in 3.85 in (1915)
Month to date precipitation 4.43 0.89  
Year to date precipitation 26.92 17.93  
Sea Level Pressure  
Sea Level Pressure 29.93 in    
Wind  
Wind Speed 6 mph (West)    
Max Wind Speed 15 mph    
Max Gust Speed 20 mph    
Visibility 8 miles    
Events      
T = Trace of Precipitation, MM = Missing Value Source: NWS Daily Summary

Daily Weather History Graph

Daily Weather History Graph

Search for Another Location

Airport or City:

Trip Planner

Search our weather history database for the weather conditions in past years. The results will help you decide how hot, cold, wet, or windy it might be!

Date:

Astronomy

May. 07, 2013 Rise Set
Actual Time 6:43 AM EDT 8:25 PM EDT
Civil Twilight 6:16 AM EDT 8:52 PM EDT
Nautical Twilight 5:43 AM EDT 9:25 PM EDT
Astronomical Twilight 5:09 AM EDT 9:59 PM EDT
Moon 5:10 AM EDT (5/7) 6:29 PM EDT (5/7)
Length of Visible Light 14h 36m
Length of Day
13h 42m
Waning Crescent, 5% of the Moon is Illuminated
May 7
Waning Crescent
May 9
New
May 18
First Quarter
May 25
Full
May 31
Last Quarter

Hourly Weather History & Observations

Time (EDT) Temp. Dew Point Humidity Pressure Visibility Wind Dir Wind Speed Gust Speed Precip Events Conditions
12:52 AM 51.1 °F 48.0 °F 89% 29.90 in 10.0 mi WSW 4.6 mph - N/A   Mostly Cloudy
1:50 AM 50.0 °F 46.4 °F 87% 29.89 in 8.0 mi Calm Calm - N/A   Mostly Cloudy
1:52 AM 50.0 °F 48.0 °F 93% 29.89 in 8.0 mi Calm Calm - N/A   Mostly Cloudy
2:22 AM 50.0 °F 48.2 °F 94% 29.88 in 7.0 mi West 3.5 mph - N/A   Overcast
2:52 AM 50.0 °F 48.0 °F 93% 29.88 in 7.0 mi West 4.6 mph - N/A   Overcast
3:01 AM 50.0 °F 48.2 °F 94% 29.88 in 7.0 mi West 4.6 mph - N/A   Overcast
3:45 AM 50.0 °F 48.2 °F 94% 29.88 in 6.0 mi West 4.6 mph - N/A   Overcast
3:52 AM 50.0 °F 48.2 °F 94% 29.88 in 6.0 mi West 5.8 mph - N/A   Overcast
4:37 AM 50.0 °F 48.2 °F 94% 29.88 in 7.0 mi NW 9.2 mph - N/A   Overcast
4:52 AM 51.1 °F 48.0 °F 89% 29.88 in 7.0 mi NW 9.2 mph - N/A   Mostly Cloudy
5:15 AM 51.8 °F 48.2 °F 88% 29.88 in 6.0 mi WNW 5.8 mph - N/A   Overcast
5:52 AM 50.0 °F 48.0 °F 93% 29.88 in 6.0 mi West 4.6 mph - N/A   Mostly Cloudy
6:52 AM 50.0 °F 46.9 °F 89% 29.91 in 7.0 mi NW 9.2 mph - N/A   Overcast
7:04 AM 48.2 °F 46.4 °F 93% 29.90 in 7.0 mi WNW 8.1 mph - N/A   Overcast
7:37 AM 50.0 °F 46.4 °F 87% 29.93 in 6.0 mi WNW 6.9 mph - N/A   Overcast
7:52 AM 50.0 °F 48.0 °F 93% 29.93 in 6.0 mi NW 6.9 mph - N/A   Overcast
8:52 AM 51.1 °F 48.0 °F 89% 29.95 in 6.0 mi WNW 6.9 mph - N/A   Overcast
9:16 AM 51.8 °F 48.2 °F 88% 29.95 in 6.0 mi NNW 6.9 mph - N/A   Overcast
9:52 AM 52.0 °F 48.0 °F 86% 29.96 in 8.0 mi NNW 6.9 mph - 0.00 in   Light Drizzle
10:23 AM 53.6 °F 48.2 °F 82% 29.96 in 10.0 mi Calm Calm - 0.00 in   Mostly Cloudy
10:52 AM 55.0 °F 48.0 °F 77% 29.97 in 10.0 mi Calm Calm - 0.00 in   Overcast
11:52 AM 57.9 °F 48.9 °F 72% 29.99 in 10.0 mi Calm Calm - N/A   Mostly Cloudy
11:59 AM 57.2 °F 48.2 °F 72% 29.98 in 10.0 mi Calm Calm - N/A   Mostly Cloudy
12:52 PM 60.1 °F 48.9 °F 67% 29.97 in 10.0 mi WNW 3.5 mph - N/A   Scattered Clouds
1:49 PM 62.6 °F 48.2 °F 59% 29.97 in 10.0 mi Variable 3.5 mph - N/A   Mostly Cloudy
1:52 PM 62.1 °F 48.9 °F 62% 29.97 in 10.0 mi West 3.5 mph - N/A   Mostly Cloudy
2:04 PM 60.8 °F 48.2 °F 63% 29.97 in 10.0 mi SW 4.6 mph - N/A   Mostly Cloudy
2:52 PM 64.0 °F 51.1 °F 63% 29.96 in 10.0 mi SW 10.4 mph - N/A   Scattered Clouds
3:52 PM 66.0 °F 50.0 °F 56% 29.95 in 10.0 mi WSW 9.2 mph - N/A   Mostly Cloudy
4:52 PM 66.0 °F 52.0 °F 60% 29.93 in 10.0 mi SW 10.4 mph - N/A   Scattered Clouds
5:52 PM 68.0 °F 52.0 °F 56% 29.94 in 10.0 mi WSW 9.2 mph 18.4 mph N/A   Mostly Cloudy
6:52 PM 64.9 °F 50.0 °F 58% 29.95 in 10.0 mi West 12.7 mph - N/A   Scattered Clouds
7:52 PM 64.0 °F 51.1 °F 63% 29.96 in 10.0 mi WSW 8.1 mph - N/A   Scattered Clouds
8:52 PM 61.0 °F 51.1 °F 70% 29.97 in 10.0 mi West 8.1 mph - N/A   Partly Cloudy
9:52 PM 59.0 °F 51.1 °F 75% 29.99 in 10.0 mi West 6.9 mph - N/A   Partly Cloudy
10:52 PM 57.0 °F 51.1 °F 81% 30.00 in 10.0 mi West 3.5 mph - N/A   Partly Cloudy
11:52 PM 57.0 °F 50.0 °F 77% 30.00 in 10.0 mi WSW 4.6 mph - N/A   Partly Cloudy